Location: Praha
(50.0830°N, 14.4670°E)
Time: 22:18:14
(UTC+02:00)

ISS - Pass Details

Date: 11 May 2021
Orbit: 418 x 421 km, 51.6° (Epoch: 07 May)

Event Time Altitude Azimuth Distance (km) Brightness Sun altitude
Exits shadow 02:04:21 69° 311° (NW) 455 -3.6 -20.5°
Maximum altitude 02:04:35 73° 350° (N) 443 -3.6 -20.5°
Drops below altitude 10° 02:07:58 10° 76° (ENE) 1,506 -0.6 -20.3°
Sets 02:10:04 0° 78° (ENE) 2,372 0.5 -20.2°
